| time (UTC) | temp F | wind direction | speed MPH | gust MPH | rain 1hr in | rain 24hr in | rain mn in | humidity % | barometer mb |
| 20260905055142 | 66 | 80 | 2.0 | 2.0 | 0.00 | 0.00 | 0.00 | 99 | 1014.2 |
| 20260905054638 | 66 | 75 | 0.0 | 1.0 | 0.00 | 0.00 | 0.00 | 99 | 1014.4 |
| 20260905054133 | 66 | 58 | 0.0 | 0.0 | 0.00 | 0.00 | 0.00 | 99 | 1014.4 |
| 20260905053632 | 66 | 148 | 0.0 | 1.0 | 0.00 | 0.00 | 0.00 | 99 | 1014.4 |
| 20260905053128 | 66 | 73 | 0.0 | 1.0 | 0.00 | 0.00 | 0.00 | 99 | 1014.4 |
| 20260905052627 | 66 | 71 | 1.0 | 1.0 | 0.00 | 0.00 | 0.00 | 99 | 1014.4 |
| 20260905052121 | 66 | 57 | 1.0 | 2.0 | 0.00 | 0.00 | 0.00 | 99 | 1014.5 |
| 20260905051617 | 67 | 71 | 0.0 | 1.0 | 0.00 | 0.00 | 0.00 | 99 | 1014.5 |
| 20260905051114 | 67 | 51 | 0.0 | 0.0 | 0.00 | 0.00 | 0.00 | 99 | 1014.4 |
| 20260905050604 | 67 | 33 | 0.0 | 0.0 | 0.00 | 0.00 | 0.00 | 99 | 1014.5 |
| 20260905050101 | 67 | 51 | 0.0 | 0.0 | 0.00 | 0.00 | 0.00 | 99 | 1014.4 |
| 20260905045554 | 67 | 26 | 0.0 | 0.0 | 0.00 | 0.00 | 0.00 | 99 | 1014.2 |
| 20260905045050 | 67 | 79 | 0.0 | 0.0 | 0.00 | 0.00 | 0.00 | 99 | 1014.0 |
| 20260905044550 | 67 | 68 | 0.0 | 1.0 | 0.00 | 0.00 | 0.00 | 99 | 1014.0 |
| 20260905044044 | 67 | 74 | 1.0 | 1.0 | 0.00 | 0.00 | 0.00 | 99 | 1014.1 |
| 20260905043544 | 67 | 92 | 0.0 | 0.0 | 0.00 | 0.00 | 0.00 | 99 | 1014.0 |
| 20260905043039 | 67 | 120 | 1.0 | 1.0 | 0.00 | 0.00 | 0.00 | 99 | 1014.2 |
| 20260905042538 | 67 | 48 | 0.0 | 0.0 | 0.00 | 0.00 | 0.00 | 99 | 1014.2 |
| 20260905042033 | 67 | 5 | 0.0 | 0.0 | 0.00 | 0.00 | 0.00 | 99 | 1014.4 |
| 20260905041528 | 68 | 108 | 0.0 | 0.0 | 0.00 | 0.00 | 0.00 | 99 | 1014.3 |
| 20260905041024 | 68 | 332 | 0.0 | 0.0 | 0.00 | 0.00 | 0.00 | 99 | 1014.2 |
| 20260905040523 | 68 | 47 | 0.0 | 0.0 | 0.00 | 0.00 | 0.00 | 99 | 1014.4 |
| 20260905040022 | 68 | 21 | 0.0 | 0.0 | 0.00 | 0.07 | 0.07 | 99 | 1014.4 |
| 20260905035517 | 68 | 78 | 0.0 | 1.0 | 0.00 | 0.07 | 0.07 | 99 | 1014.4 |
| 20260905035015 | 68 | 72 | 1.0 | 1.0 | 0.00 | 0.07 | 0.07 | 99 | 1014.6 |
| 20260905034510 | 68 | 66 | 0.0 | 1.0 | 0.00 | 0.07 | 0.07 | 99 | 1014.5 |
| 20260905034009 | 68 | 55 | 1.0 | 2.0 | 0.00 | 0.07 | 0.07 | 99 | 1014.5 |
| 20260905033503 | 68 | 126 | 3.0 | 3.0 | 0.00 | 0.07 | 0.07 | 99 | 1014.6 |
| 20260905032958 | 69 | 260 | 0.0 | 0.0 | 0.00 | 0.07 | 0.07 | 99 | 1014.4 |
| 20260905032454 | 69 | 78 | 0.0 | 1.0 | 0.00 | 0.07 | 0.07 | 99 | 1014.5 |
| 20260905031948 | 69 | 42 | 0.0 | 0.0 | 0.00 | 0.07 | 0.07 | 99 | 1014.6 |
| 20260905031445 | 69 | 101 | 0.0 | 1.0 | 0.00 | 0.07 | 0.07 | 99 | 1014.6 |
| 20260905030939 | 69 | 355 | 0.0 | 0.0 | 0.00 | 0.07 | 0.07 | 99 | 1014.6 |
| 20260905030435 | 69 | 56 | 0.0 | 1.0 | 0.00 | 0.07 | 0.07 | 99 | 1014.5 |
| 20260905025933 | 70 | 66 | 0.0 | 0.0 | 0.00 | 0.07 | 0.07 | 99 | 1014.7 |
| 20260905025429 | 70 | 76 | 0.0 | 1.0 | 0.00 | 0.07 | 0.07 | 99 | 1014.6 |
| 20260905024926 | 70 | 71 | 3.0 | 5.0 | 0.00 | 0.07 | 0.07 | 99 | 1015.0 |
| 20260905024426 | 70 | 51 | 0.0 | 0.0 | 0.00 | 0.07 | 0.07 | 99 | 1014.8 |
| 20260905023921 | 70 | 69 | 0.0 | 0.0 | 0.00 | 0.07 | 0.07 | 99 | 1014.8 |
| 20260905023416 | 71 | 72 | 0.0 | 0.0 | 0.00 | 0.07 | 0.07 | 99 | 1015.1 |
| 20260905022915 | 71 | 71 | 1.0 | 3.0 | 0.00 | 0.07 | 0.07 | 99 | 1014.9 |
| 20260905022411 | 71 | 77 | 0.0 | 0.0 | 0.00 | 0.07 | 0.07 | 99 | 1015.0 |
| 20260905021906 | 71 | 52 | 0.0 | 0.0 | 0.00 | 0.07 | 0.07 | 99 | 1014.9 |
| 20260905021400 | 71 | 57 | 0.0 | 0.0 | 0.00 | 0.07 | 0.07 | 99 | 1015.0 |
| 20260905020856 | 71 | 74 | 0.0 | 1.0 | 0.00 | 0.07 | 0.07 | 99 | 1015.2 |
| 20260905020349 | 71 | 127 | 1.0 | 2.0 | 0.00 | 0.07 | 0.07 | 99 | 1014.9 |
| 20260905015844 | 71 | 89 | 0.0 | 0.0 | 0.00 | 0.07 | 0.07 | 99 | 1014.9 |
| 20260905015343 | 71 | 77 | 0.0 | 0.0 | 0.00 | 0.07 | 0.07 | 99 | 1014.9 |
| 20260905014837 | 71 | 340 | 0.0 | 0.0 | 0.00 | 0.07 | 0.07 | 99 | 1014.8 |
| 20260905014332 | 71 | 72 | 0.0 | 0.0 | 0.00 | 0.07 | 0.07 | 99 | 1014.7 |
| 20260905013828 | 71 | 73 | 1.0 | 2.0 | 0.00 | 0.07 | 0.07 | 99 | 1014.7 |
| 20260905013324 | 71 | 71 | 0.0 | 0.0 | 0.00 | 0.07 | 0.07 | 99 | 1015.0 |
| 20260905012819 | 71 | 72 | 0.0 | 0.0 | 0.00 | 0.07 | 0.07 | 99 | 1015.0 |
| 20260905012315 | 71 | 328 | 0.0 | 0.0 | 0.00 | 0.07 | 0.07 | 99 | 1015.0 |
| 20260905011811 | 71 | 78 | 0.0 | 1.0 | 0.00 | 0.07 | 0.07 | 99 | 1014.8 |
| 20260905011307 | 71 | 68 | 0.0 | 1.0 | 0.00 | 0.07 | 0.07 | 99 | 1014.8 |
| 20260905010807 | 72 | 64 | 0.0 | 1.0 | 0.00 | 0.07 | 0.07 | 99 | 1014.6 |
| 20260905010302 | 72 | 54 | 0.0 | 0.0 | 0.00 | 0.07 | 0.07 | 99 | 1014.6 |
| 20260905005758 | 72 | 74 | 2.0 | 3.0 | 0.00 | 0.07 | 0.07 | 99 | 1014.3 |
| 20260905005253 | 72 | 68 | 2.0 | 3.0 | 0.00 | 0.07 | 0.07 | 99 | 1014.4 |
| 20260905004753 | 72 | 58 | 4.0 | 6.0 | 0.00 | 0.07 | 0.07 | 99 | 1014.4 |
| 20260905004247 | 72 | 75 | 1.0 | 1.0 | 0.00 | 0.07 | 0.07 | 99 | 1014.3 |
| 20260905003743 | 73 | 94 | 3.0 | 5.0 | 0.00 | 0.07 | 0.07 | 98 | 1014.4 |
| 20260905003238 | 73 | 93 | 3.0 | 5.0 | 0.00 | 0.07 | 0.07 | 98 | 1014.2 |
| 20260905002734 | 73 | 72 | 3.0 | 3.0 | 0.00 | 0.07 | 0.07 | 98 | 1014.1 |
| 20260905002234 | 73 | 46 | 3.0 | 5.0 | 0.00 | 0.07 | 0.07 | 97 | 1014.0 |
| 20260905001729 | 74 | 61 | 1.0 | 3.0 | 0.00 | 0.07 | 0.07 | 97 | 1014.1 |
| 20260905001228 | 75 | 68 | 1.0 | 2.0 | 0.00 | 0.07 | 0.07 | 97 | 1013.9 |
| 20260905000724 | 75 | 320 | 0.0 | 0.0 | 0.00 | 0.07 | 0.07 | 96 | 1014.1 |
| 20260905000219 | 75 | 64 | 2.0 | 2.0 | 0.00 | 0.07 | 0.07 | 96 | 1013.8 |
| 20260904235715 | 75 | 320 | 0.0 | 0.0 | 0.00 | 0.07 | 0.07 | 95 | 1013.9 |
| 20260904235209 | 75 | 71 | 0.0 | 0.0 | 0.00 | 0.07 | 0.07 | 95 | 1013.8 |
| 20260904234703 | 75 | 61 | 0.0 | 0.0 | 0.00 | 0.07 | 0.07 | 95 | 1014.0 |
| 20260904234159 | 75 | 28 | 0.0 | 0.0 | 0.00 | 0.07 | 0.07 | 95 | 1014.0 |
| 20260904233655 | 75 | 335 | 0.0 | 0.0 | 0.00 | 0.07 | 0.07 | 94 | 1013.7 |
| 20260904233150 | 75 | 58 | 0.0 | 1.0 | 0.00 | 0.07 | 0.07 | 94 | 1013.9 |
| 20260904232647 | 76 | 10 | 2.0 | 5.0 | 0.00 | 0.07 | 0.07 | 94 | 1013.7 |
| 20260904232143 | 76 | 56 | 1.0 | 1.0 | 0.00 | 0.07 | 0.07 | 94 | 1013.7 |
| 20260904231638 | 76 | 302 | 1.0 | 2.0 | 0.00 | 0.07 | 0.07 | 94 | 1013.8 |
| 20260904231133 | 76 | 13 | 1.0 | 1.0 | 0.00 | 0.07 | 0.07 | 94 | 1013.9 |
| 20260904230632 | 76 | 5 | 1.0 | 2.0 | 0.00 | 0.07 | 0.07 | 93 | 1013.5 |
| 20260904230128 | 77 | 338 | 2.0 | 5.0 | 0.00 | 0.07 | 0.07 | 93 | 1013.3 |
| 20260904225626 | 77 | 112 | 3.0 | 5.0 | 0.00 | 0.07 | 0.07 | 93 | 1013.4 |
| 20260904225120 | 77 | 52 | 0.0 | 0.0 | 0.00 | 0.07 | 0.07 | 92 | 1013.3 |
| 20260904224615 | 78 | 74 | 1.0 | 2.0 | 0.00 | 0.07 | 0.07 | 92 | 1013.3 |
| 20260904224110 | 78 | 305 | 0.0 | 0.0 | 0.00 | 0.07 | 0.07 | 91 | 1013.0 |
| 20260904223609 | 78 | 38 | 0.0 | 0.0 | 0.00 | 0.07 | 0.07 | 90 | 1013.1 |
| 20260904223105 | 79 | 54 | 1.0 | 2.0 | 0.00 | 0.07 | 0.07 | 86 | 1013.2 |
| 20260904222601 | 79 | 354 | 0.0 | 0.0 | 0.00 | 0.07 | 0.07 | 85 | 1012.7 |
| 20260904222056 | 79 | 208 | 0.0 | 0.0 | 0.00 | 0.07 | 0.07 | 85 | 1013.0 |
| 20260904221556 | 80 | 319 | 1.0 | 1.0 | 0.00 | 0.07 | 0.07 | 84 | 1013.0 |
| 20260904221056 | 80 | 345 | 0.0 | 0.0 | 0.00 | 0.07 | 0.07 | 84 | 1012.7 |
| 20260904220550 | 79 | 325 | 0.0 | 0.0 | 0.00 | 0.07 | 0.07 | 84 | 1013.0 |
| 20260904220046 | 79 | 285 | 0.0 | 0.0 | 0.00 | 0.07 | 0.07 | 83 | 1012.9 |
| 20260904215545 | 79 | 305 | 0.0 | 0.0 | 0.00 | 0.07 | 0.07 | 84 | 1012.9 |
| 20260904215036 | 80 | 285 | 0.0 | 0.0 | 0.00 | 0.07 | 0.07 | 82 | 1012.7 |
| 20260904214531 | 80 | 314 | 0.0 | 0.0 | 0.00 | 0.07 | 0.07 | 82 | 1012.7 |
| 20260904214026 | 80 | 14 | 0.0 | 0.0 | 0.00 | 0.07 | 0.07 | 84 | 1012.9 |
| 20260904213524 | 80 | 326 | 0.0 | 0.0 | 0.00 | 0.07 | 0.07 | 83 | 1012.6 |
| 20260904213016 | 80 | 310 | 0.0 | 1.0 | 0.00 | 0.07 | 0.07 | 83 | 1012.6 |
| 20260904212515 | 80 | 315 | 2.0 | 3.0 | 0.00 | 0.07 | 0.07 | 82 | 1013.0 |
| 20260904212010 | 80 | 290 | 0.0 | 0.0 | 0.00 | 0.07 | 0.07 | 82 | 1012.6 |
| 20260904211504 | 80 | 54 | 0.0 | 0.0 | 0.00 | 0.07 | 0.07 | 81 | 1012.7 |
| 20260904211000 | 81 | 336 | 0.0 | 0.0 | 0.00 | 0.07 | 0.07 | 80 | 1012.5 |
| 20260904210459 | 81 | 295 | 0.0 | 0.0 | 0.00 | 0.07 | 0.07 | 80 | 1012.5 |
| 20260904205955 | 80 | 290 | 0.0 | 0.0 | 0.00 | 0.07 | 0.07 | 80 | 1012.4 |
| 20260904205450 | 81 | 238 | 0.0 | 1.0 | 0.00 | 0.07 | 0.07 | 79 | 1012.6 |
| 20260904204947 | 80 | 334 | 0.0 | 0.0 | 0.00 | 0.07 | 0.07 | 82 | 1012.6 |
| 20260904204443 | 79 | 257 | 2.0 | 2.0 | 0.00 | 0.07 | 0.07 | 83 | 1012.6 |
| 20260904203939 | 80 | 226 | 2.0 | 5.0 | 0.00 | 0.07 | 0.07 | 83 | 1013.0 |
| 20260904203435 | 80 | 242 | 1.0 | 2.0 | 0.00 | 0.07 | 0.07 | 83 | 1013.1 |
| 20260904202930 | 78 | 292 | 1.0 | 2.0 | 0.00 | 0.07 | 0.07 | 84 | 1012.7 |
| 20260904202426 | 79 | 217 | 0.0 | 1.0 | 0.00 | 0.07 | 0.07 | 85 | 1012.7 |
| 20260904201922 | 79 | 244 | 2.0 | 3.0 | 0.00 | 0.07 | 0.07 | 83 | 1012.7 |
| 20260904201417 | 79 | 250 | 2.0 | 3.0 | 0.00 | 0.07 | 0.07 | 82 | 1012.6 |
| 20260904200913 | 79 | 329 | 0.0 | 0.0 | 0.00 | 0.07 | 0.07 | 83 | 1012.6 |
| 20260904200411 | 78 | 232 | 0.0 | 1.0 | 0.00 | 0.07 | 0.07 | 84 | 1012.9 |
| 20260904195907 | 80 | 304 | 2.0 | 2.0 | 0.00 | 0.07 | 0.07 | 82 | 1012.7 |
| 20260904195404 | 79 | 305 | 2.0 | 2.0 | 0.00 | 0.07 | 0.07 | 83 | 1013.0 |
| 20260904194859 | 79 | 331 | 1.0 | 2.0 | 0.00 | 0.07 | 0.07 | 83 | 1013.1 |
| 20260904194359 | 79 | 288 | 0.0 | 0.0 | 0.00 | 0.07 | 0.07 | 83 | 1013.1 |
| 20260904193854 | 79 | 343 | 0.0 | 0.0 | 0.00 | 0.07 | 0.07 | 83 | 1013.2 |
| 20260904193349 | 79 | 247 | 2.0 | 3.0 | 0.00 | 0.07 | 0.07 | 82 | 1013.2 |
| 20260904192844 | 79 | 214 | 1.0 | 2.0 | 0.00 | 0.07 | 0.07 | 82 | 1013.4 |
| 20260904192340 | 79 | 266 | 1.0 | 2.0 | 0.00 | 0.07 | 0.07 | 82 | 1013.3 |
| 20260904191836 | 78 | 300 | 2.0 | 3.0 | 0.00 | 0.07 | 0.07 | 82 | 1013.5 |
| 20260904191332 | 79 | 235 | 3.0 | 5.0 | 0.00 | 0.07 | 0.07 | 84 | 1013.6 |
| 20260904190829 | 79 | 306 | 1.0 | 2.0 | 0.00 | 0.07 | 0.07 | 84 | 1013.5 |
| 20260904190324 | 78 | 298 | 0.0 | 0.0 | 0.00 | 0.07 | 0.07 | 86 | 1013.5 |
| 20260904185820 | 79 | 298 | 1.0 | 2.0 | 0.00 | 0.07 | 0.07 | 86 | 1013.5 |
| 20260904185316 | 77 | 277 | 0.0 | 1.0 | 0.00 | 0.07 | 0.07 | 88 | 1013.4 |
| 20260904184815 | 77 | 290 | 1.0 | 2.0 | 0.00 | 0.07 | 0.07 | 89 | 1013.4 |
| 20260904184310 | 77 | 262 | 0.0 | 0.0 | 0.00 | 0.07 | 0.07 | 89 | 1013.6 |
| 20260904183805 | 78 | 295 | 0.0 | 0.0 | 0.00 | 0.07 | 0.07 | 91 | 1013.5 |
| 20260904183300 | 77 | 259 | 0.0 | 0.0 | 0.00 | 0.07 | 0.07 | 90 | 1013.5 |
| 20260904182755 | 77 | 293 | 1.0 | 1.0 | 0.00 | 0.07 | 0.07 | 92 | 1013.6 |
| 20260904182250 | 76 | 280 | 1.0 | 1.0 | 0.00 | 0.07 | 0.07 | 93 | 1013.6 |
| 20260904181746 | 76 | 304 | 0.0 | 0.0 | 0.00 | 0.07 | 0.07 | 94 | 1013.7 |
| 20260904181246 | 76 | 226 | 0.0 | 1.0 | 0.00 | 0.07 | 0.07 | 95 | 1013.4 |
| 20260904180741 | 76 | 307 | 0.0 | 0.0 | 0.00 | 0.07 | 0.07 | 96 | 1013.5 |
| 20260904180237 | 76 | 320 | 0.0 | 2.0 | 0.00 | 0.07 | 0.07 | 95 | 1013.7 |
| 20260904175735 | 76 | 69 | 0.0 | 0.0 | 0.00 | 0.07 | 0.07 | 96 | 1013.8 |
| 20260904175234 | 75 | 272 | 0.0 | 0.0 | 0.00 | 0.07 | 0.07 | 98 | 1013.7 |
| 20260904174729 | 75 | 294 | 0.0 | 0.0 | 0.00 | 0.07 | 0.07 | 99 | 1013.6 |
| 20260904174225 | 74 | 289 | 0.0 | 0.0 | 0.00 | 0.07 | 0.07 | 99 | 1013.7 |
| 20260904173721 | 73 | 277 | 1.0 | 2.0 | 0.00 | 0.07 | 0.07 | 99 | 1013.8 |
| 20260904173220 | 73 | 296 | 0.0 | 0.0 | 0.00 | 0.07 | 0.07 | 99 | 1013.9 |
| 20260904172717 | 73 | 287 | 0.0 | 0.0 | 0.00 | 0.07 | 0.07 | 99 | 1014.1 |
| 20260904172216 | 73 | 270 | 0.0 | 0.0 | 0.00 | 0.07 | 0.07 | 99 | 1014.0 |
| 20260904171712 | 73 | 323 | 2.0 | 3.0 | 0.00 | 0.07 | 0.07 | 99 | 1014.1 |
| 20260904171206 | 72 | 262 | 0.0 | 0.0 | 0.00 | 0.07 | 0.07 | 99 | 1013.9 |
| 20260904170703 | 73 | 355 | 0.0 | 0.0 | 0.00 | 0.07 | 0.07 | 99 | 1014.0 |
| 20260904170159 | 72 | 299 | 0.0 | 0.0 | 0.00 | 0.07 | 0.07 | 99 | 1013.8 |
| 20260904165657 | 72 | 296 | 0.0 | 0.0 | 0.00 | 0.07 | 0.07 | 99 | 1013.9 |
| 20260904165157 | 72 | 253 | 0.0 | 0.0 | 0.00 | 0.07 | 0.07 | 99 | 1013.7 |
| 20260904164652 | 72 | 253 | 0.0 | 0.0 | 0.00 | 0.07 | 0.07 | 99 | 1014.1 |
| 20260904164147 | 72 | 334 | 1.0 | 2.0 | 0.00 | 0.07 | 0.07 | 99 | 1014.0 |
| 20260904163642 | 72 | 302 | 0.0 | 0.0 | 0.00 | 0.07 | 0.07 | 99 | 1014.0 |
| 20260904163132 | 72 | 50 | 0.0 | 0.0 | 0.00 | 0.07 | 0.07 | 99 | 1014.0 |
| 20260904162631 | 72 | 280 | 0.0 | 0.0 | 0.00 | 0.07 | 0.07 | 99 | 1013.9 |
| 20260904162126 | 72 | 249 | 0.0 | 0.0 | 0.00 | 0.07 | 0.07 | 99 | 1014.3 |
| 20260904161622 | 71 | 307 | 0.0 | 0.0 | 0.00 | 0.07 | 0.07 | 99 | 1014.2 |
| 20260904161116 | 71 | 330 | 0.0 | 0.0 | 0.00 | 0.07 | 0.07 | 99 | 1014.4 |
| 20260904160612 | 71 | 254 | 0.0 | 0.0 | 0.00 | 0.07 | 0.07 | 99 | 1014.6 |
| 20260904160108 | 71 | 37 | 0.0 | 0.0 | 0.00 | 0.07 | 0.07 | 99 | 1014.7 |
| 20260904155602 | 71 | 334 | 0.0 | 0.0 | 0.00 | 0.07 | 0.07 | 99 | 1014.8 |
| 20260904155056 | 71 | 54 | 0.0 | 0.0 | 0.00 | 0.07 | 0.07 | 99 | 1014.9 |
| 20260904154550 | 71 | 305 | 2.0 | 2.0 | 0.00 | 0.07 | 0.07 | 99 | 1015.0 |
| 20260904154045 | 71 | 288 | 0.0 | 0.0 | 0.00 | 0.07 | 0.07 | 99 | 1014.9 |
| 20260904153544 | 71 | 300 | 1.0 | 1.0 | 0.00 | 0.07 | 0.07 | 99 | 1015.2 |
| 20260904153041 | 70 | 299 | 0.0 | 1.0 | 0.00 | 0.07 | 0.07 | 99 | 1015.3 |
| 20260904152536 | 70 | 296 | 0.0 | 1.0 | 0.00 | 0.07 | 0.07 | 99 | 1015.4 |
| 20260904152032 | 70 | 328 | 0.0 | 0.0 | 0.00 | 0.07 | 0.07 | 99 | 1015.2 |
| 20260904151526 | 70 | 257 | 0.0 | 0.0 | 0.00 | 0.07 | 0.07 | 99 | 1015.4 |
| 20260904151020 | 70 | 338 | 0.0 | 0.0 | 0.00 | 0.07 | 0.07 | 99 | 1015.5 |
| 20260904150515 | 69 | 315 | 0.0 | 0.0 | 0.00 | 0.07 | 0.07 | 99 | 1015.5 |
| 20260904150010 | 69 | 293 | 0.0 | 0.0 | 0.00 | 0.07 | 0.07 | 99 | 1015.5 |
| 20260904145504 | 69 | 308 | 0.0 | 0.0 | 0.00 | 0.07 | 0.07 | 99 | 1015.5 |
| 20260904144959 | 69 | 280 | 0.0 | 0.0 | 0.00 | 0.07 | 0.07 | 99 | 1015.6 |
| 20260904144455 | 69 | 205 | 0.0 | 0.0 | 0.00 | 0.07 | 0.07 | 99 | 1015.5 |
| 20260904143950 | 69 | 239 | 0.0 | 0.0 | 0.00 | 0.07 | 0.07 | 99 | 1015.8 |
| 20260904143446 | 69 | 25 | 0.0 | 0.0 | 0.00 | 0.07 | 0.07 | 99 | 1015.2 |
| 20260904142942 | 68 | 320 | 0.0 | 0.0 | 0.00 | 0.07 | 0.07 | 99 | 1015.2 |
| 20260904142439 | 68 | 313 | 0.0 | 0.0 | 0.00 | 0.07 | 0.07 | 99 | 1015.2 |
| 20260904141933 | 68 | 314 | 0.0 | 0.0 | 0.00 | 0.07 | 0.07 | 99 | 1015.4 |
| 20260904141428 | 68 | 352 | 0.0 | 0.0 | 0.00 | 0.07 | 0.07 | 99 | 1015.2 |
| 20260904140925 | 68 | 60 | 0.0 | 0.0 | 0.07 | 0.07 | 0.07 | 99 | 1014.8 |
| 20260904140425 | 68 | 13 | 0.0 | 0.0 | 0.07 | 0.07 | 0.07 | 99 | 1014.6 |
| 20260904135924 | 68 | 140 | 0.0 | 0.0 | 0.07 | 0.07 | 0.07 | 99 | 1014.8 |
| 20260904135424 | 68 | 67 | 0.0 | 0.0 | 0.00 | 0.06 | 0.06 | 99 | 1014.8 |
| 20260904134920 | 68 | 338 | 0.0 | 0.0 | 0.00 | 0.06 | 0.06 | 99 | 1015.1 |
| 20260904134420 | 68 | 310 | 0.0 | 0.0 | 0.05 | 0.06 | 0.06 | 99 | 1015.1 |
| 20260904133915 | 68 | 36 | 0.0 | 0.0 | 0.00 | 0.05 | 0.05 | 99 | 1015.1 |
| 20260904133414 | 67 | 329 | 0.0 | 0.0 | 0.00 | 0.05 | 0.05 | 99 | 1015.5 |
| 20260904132910 | 67 | 283 | 0.0 | 0.0 | 0.00 | 0.05 | 0.05 | 99 | 1015.4 |
| 20260904132405 | 67 | 287 | 0.0 | 0.0 | 0.00 | 0.05 | 0.05 | 99 | 1015.5 |
| 20260904131904 | 67 | 320 | 0.0 | 0.0 | 0.00 | 0.05 | 0.05 | 99 | 1015.8 |
| 20260904131400 | 67 | 308 | 0.0 | 0.0 | 0.00 | 0.05 | 0.05 | 99 | 1015.8 |
| 20260904130855 | 67 | 271 | 0.0 | 0.0 | 0.00 | 0.05 | 0.05 | 99 | 1015.8 |
| 20260904130354 | 67 | 278 | 0.0 | 0.0 | 0.00 | 0.05 | 0.05 | 99 | 1015.9 |
| 20260904125849 | 67 | 294 | 0.0 | 0.0 | 0.00 | 0.05 | 0.05 | 99 | 1016.0 |
| 20260904125346 | 67 | 306 | 0.0 | 0.0 | 0.00 | 0.05 | 0.05 | 99 | 1015.9 |
| 20260904124845 | 67 | 310 | 0.0 | 0.0 | 0.00 | 0.05 | 0.05 | 99 | 1016.1 |
| 20260904124342 | 67 | 340 | 0.0 | 0.0 | 0.07 | 0.05 | 0.05 | 99 | 1016.0 |
| 20260904123836 | 67 | 294 | 0.0 | 0.0 | 0.07 | 0.05 | 0.05 | 99 | 1015.8 |
| 20260904123332 | 67 | 289 | 0.0 | 0.0 | 0.07 | 0.04 | 0.04 | 99 | 1015.4 |
| 20260904122826 | 67 | 276 | 0.0 | 0.0 | 0.07 | 0.04 | 0.04 | 99 | 1015.2 |
| 20260904122321 | 67 | 289 | 0.0 | 0.0 | 0.00 | 0.03 | 0.03 | 99 | 1015.1 |
| 20260904121816 | 67 | 15 | 0.0 | 0.0 | 0.05 | 0.03 | 0.03 | 99 | 1015.0 |
| 20260904121312 | 67 | 307 | 0.0 | 0.0 | 0.05 | 0.03 | 0.03 | 99 | 1015.4 |
| 20260904120809 | 67 | 286 | 0.0 | 0.0 | 0.07 | 0.02 | 0.02 | 99 | 1015.4 |
| 20260904120304 | 67 | 315 | 0.0 | 0.0 | 0.07 | 0.02 | 0.02 | 99 | 1015.6 |
| 20260904115759 | 67 | 305 | 0.0 | 0.0 | 0.00 | 0.01 | 0.01 | 99 | 1015.2 |
| 20260904115254 | 67 | 296 | 0.0 | 0.0 | 0.00 | 0.01 | 0.01 | 99 | 1015.1 |
| 20260904114749 | 67 | 323 | 0.0 | 0.0 | 0.00 | 0.01 | 0.01 | 99 | 1015.2 |
| 20260904114248 | 67 | 346 | 0.0 | 0.0 | 0.05 | 0.01 | 0.01 | 99 | 1015.1 |
| 20260904113744 | 66 | 33 | 0.0 | 0.0 | 0.05 | 0.01 | 0.01 | 99 | 1014.9 |
| 20260904113243 | 66 | 309 | 0.0 | 0.0 | 0.00 | 0.00 | 0.00 | 99 | 1015.0 |
| 20260904112738 | 66 | 339 | 0.0 | 0.0 | 0.00 | 0.00 | 0.00 | 99 | 1014.9 |
| 20260904112233 | 66 | 264 | 0.0 | 0.0 | 0.00 | 0.00 | 0.00 | 99 | 1014.7 |
| 20260904111729 | 66 | 279 | 0.0 | 0.0 | 0.00 | 0.00 | 0.00 | 99 | 1014.7 |
| 20260904111225 | 66 | 297 | 0.0 | 0.0 | 0.00 | 0.00 | 0.00 | 99 | 1014.4 |
| 20260904110720 | 66 | 122 | 0.0 | 0.0 | 0.00 | 0.00 | 0.00 | 99 | 1014.3 |
| 20260904110219 | 66 | 81 | 0.0 | 0.0 | 0.00 | 0.00 | 0.00 | 99 | 1014.3 |
| 20260904105714 | 66 | 347 | 0.0 | 0.0 | 0.00 | 0.00 | 0.00 | 99 | 1014.4 |
| 20260904105209 | 66 | 220 | 0.0 | 0.0 | 0.00 | 0.00 | 0.00 | 99 | 1014.3 |
| 20260904104704 | 66 | 302 | 0.0 | 0.0 | 0.00 | 0.00 | 0.00 | 99 | 1014.0 |
| 20260904104200 | 66 | 75 | 0.0 | 0.0 | 0.00 | 0.00 | 0.00 | 99 | 1014.2 |
| 20260904103657 | 66 | 49 | 0.0 | 0.0 | 0.00 | 0.00 | 0.00 | 99 | 1014.2 |
| 20260904103151 | 66 | 64 | 0.0 | 0.0 | 0.00 | 0.00 | 0.00 | 99 | 1014.1 |
| 20260904102647 | 66 | 297 | 0.0 | 0.0 | 0.00 | 0.00 | 0.00 | 99 | 1014.1 |
| 20260904102142 | 66 | 13 | 0.0 | 0.0 | 0.00 | 0.00 | 0.00 | 99 | 1013.9 |
| 20260904101639 | 66 | 76 | 0.0 | 0.0 | 0.00 | 0.00 | 0.00 | 99 | 1013.8 |
| 20260904101134 | 66 | 290 | 0.0 | 0.0 | 0.00 | 0.00 | 0.00 | 99 | 1014.0 |
| 20260904100630 | 66 | 287 | 0.0 | 0.0 | 0.00 | 0.00 | 0.00 | 99 | 1014.1 |
| 20260904100125 | 66 | 275 | 0.0 | 0.0 | 0.00 | 0.00 | 0.00 | 99 | 1013.9 |
| 20260904095620 | 66 | 65 | 0.0 | 0.0 | 0.00 | 0.00 | 0.00 | 99 | 1013.8 |
| 20260904095119 | 66 | 75 | 0.0 | 0.0 | 0.00 | 0.00 | 0.00 | 99 | 1013.9 |
| 20260904094615 | 66 | 324 | 0.0 | 0.0 | 0.00 | 0.00 | 0.00 | 99 | 1013.7 |
| 20260904094110 | 66 | 272 | 0.0 | 0.0 | 0.00 | 0.00 | 0.00 | 99 | 1013.4 |
| 20260904093607 | 66 | 173 | 0.0 | 0.0 | 0.00 | 0.00 | 0.00 | 99 | 1013.4 |
| 20260904093106 | 66 | 103 | 0.0 | 0.0 | 0.00 | 0.00 | 0.00 | 99 | 1013.7 |
| 20260904092603 | 66 | 74 | 1.0 | 2.0 | 0.00 | 0.00 | 0.00 | 99 | 1013.6 |
| 20260904092059 | 66 | 80 | 0.0 | 0.0 | 0.00 | 0.00 | 0.00 | 99 | 1013.9 |
| 20260904091555 | 66 | 325 | 0.0 | 0.0 | 0.00 | 0.00 | 0.00 | 99 | 1014.1 |
| 20260904091054 | 66 | 39 | 0.0 | 0.0 | 0.00 | 0.00 | 0.00 | 99 | 1014.3 |
| 20260904090550 | 66 | 53 | 0.0 | 0.0 | 0.00 | 0.00 | 0.00 | 99 | 1014.4 |
| 20260904090045 | 66 | 311 | 0.0 | 0.0 | 0.00 | 0.00 | 0.00 | 99 | 1014.4 |
| 20260904085540 | 66 | 76 | 0.0 | 0.0 | 0.00 | 0.00 | 0.00 | 99 | 1014.5 |
| 20260904085034 | 66 | 66 | 0.0 | 0.0 | 0.00 | 0.00 | 0.00 | 99 | 1014.4 |
| 20260904084530 | 66 | 48 | 0.0 | 0.0 | 0.00 | 0.00 | 0.00 | 99 | 1014.6 |
| 20260904084026 | 66 | 285 | 0.0 | 0.0 | 0.00 | 0.00 | 0.00 | 99 | 1014.6 |
| 20260904083522 | 66 | 61 | 0.0 | 0.0 | 0.00 | 0.00 | 0.00 | 99 | 1014.4 |
| 20260904083017 | 66 | 60 | 0.0 | 0.0 | 0.00 | 0.00 | 0.00 | 99 | 1014.5 |
| 20260904082512 | 67 | 52 | 0.0 | 0.0 | 0.00 | 0.00 | 0.00 | 99 | 1014.3 |
| 20260904082007 | 67 | 290 | 0.0 | 0.0 | 0.00 | 0.00 | 0.00 | 99 | 1014.5 |
| 20260904081503 | 67 | 294 | 0.0 | 0.0 | 0.00 | 0.00 | 0.00 | 99 | 1014.7 |
| 20260904080958 | 67 | 284 | 0.0 | 0.0 | 0.00 | 0.00 | 0.00 | 99 | 1014.6 |
| 20260904080454 | 67 | 343 | 0.0 | 0.0 | 0.00 | 0.00 | 0.00 | 99 | 1014.2 |
| 20260904075949 | 67 | 138 | 0.0 | 0.0 | 0.00 | 0.00 | 0.00 | 99 | 1014.2 |
| 20260904075445 | 67 | 60 | 0.0 | 0.0 | 0.00 | 0.00 | 0.00 | 99 | 1014.6 |
| 20260904074944 | 67 | 64 | 0.0 | 0.0 | 0.00 | 0.00 | 0.00 | 99 | 1014.9 |
| 20260904074439 | 66 | 293 | 0.0 | 0.0 | 0.00 | 0.00 | 0.00 | 99 | 1014.8 |
| 20260904073934 | 66 | 213 | 0.0 | 0.0 | 0.00 | 0.00 | 0.00 | 99 | 1014.6 |
| 20260904073430 | 66 | 278 | 0.0 | 0.0 | 0.00 | 0.00 | 0.00 | 99 | 1014.7 |
| 20260904072925 | 66 | 281 | 0.0 | 0.0 | 0.00 | 0.00 | 0.00 | 99 | 1014.5 |
| 20260904072421 | 66 | 284 | 0.0 | 0.0 | 0.00 | 0.00 | 0.00 | 99 | 1014.4 |
| 20260904071916 | 66 | 296 | 0.0 | 0.0 | 0.00 | 0.00 | 0.00 | 99 | 1014.3 |
| 20260904071411 | 66 | 313 | 0.0 | 0.0 | 0.00 | 0.00 | 0.00 | 99 | 1014.0 |
| 20260904070906 | 66 | 358 | 0.0 | 0.0 | 0.00 | 0.00 | 0.00 | 99 | 1014.1 |
| 20260904070405 | 66 | 48 | 0.0 | 0.0 | 0.00 | 0.00 | 0.00 | 99 | 1014.4 |
| 20260904065905 | 66 | 48 | 0.0 | 0.0 | 0.00 | 0.00 | 0.00 | 99 | 1014.5 |
| 20260904065401 | 66 | 318 | 0.0 | 0.0 | 0.00 | 0.00 | 0.00 | 99 | 1014.8 |
| 20260904064901 | 66 | 288 | 0.0 | 0.0 | 0.00 | 0.00 | 0.00 | 99 | 1014.6 |
| 20260904064357 | 66 | 288 | 0.0 | 0.0 | 0.00 | 0.00 | 0.00 | 99 | 1015.0 |
| 20260904063852 | 66 | 288 | 0.0 | 0.0 | 0.00 | 0.00 | 0.00 | 99 | 1015.0 |
| 20260904063349 | 66 | 288 | 0.0 | 0.0 | 0.00 | 0.00 | 0.00 | 99 | 1015.0 |
| 20260904062844 | 66 | 277 | 0.0 | 0.0 | 0.00 | 0.00 | 0.00 | 99 | 1015.0 |
| 20260904062340 | 66 | 290 | 0.0 | 0.0 | 0.00 | 0.00 | 0.00 | 99 | 1015.1 |
| 20260904061835 | 66 | 304 | 0.0 | 0.0 | 0.00 | 0.00 | 0.00 | 99 | 1015.3 |
| 20260904061332 | 66 | 304 | 0.0 | 0.0 | 0.00 | 0.00 | 0.00 | 99 | 1015.5 |
| 20260904060827 | 66 | 302 | 0.0 | 0.0 | 0.00 | 0.00 | 0.00 | 99 | 1015.4 |
| 20260904060324 | 66 | 298 | 0.0 | 0.0 | 0.00 | 0.00 | 0.00 | 99 | 1015.2 |
| 20260904055818 | 66 | 293 | 0.0 | 0.0 | 0.00 | 0.00 | 0.00 | 99 | 1015.2 |